Weather History for Logansport, IN

Change the Weather History Date:

Tuesday, October 23, 2012

  Actual Average Record
Temperature  
Mean Temperature 58 °F -  
Max Temperature 64 °F 62 °F 44 °F (2013)
Min Temperature 53 °F 37 °F 33 °F (2013)
Degree Days  
Heating Degree Days 6    
Growing Degree Days 8 (Base 50)    
Moisture  
Dew Point 57 °F    
Average Humidity 89    
Maximum Humidity 100    
Minimum Humidity 68    
Precipitation  
Precipitation 0.85 in - - ()
Sea Level Pressure  
Sea Level Pressure 29.98 in    
Wind  
Wind Speed 8 mph ()    
Max Wind Speed 26 mph    
Max Gust Speed 36 mph    
Visibility 9.4 miles    
Events Rain    
Averages and records for this station are not official NWS values.
T = Trace of Precipitation, MM = Missing Value Source: Averaged Metar Reports

Daily Weather History Graph

Daily Weather History Graph

Search for Another Location

Airport:

Trip Planner

Search our weather history database for the weather conditions in past years. The results will help you decide how hot, cold, wet, or windy it might be!

Date:

Astronomy

Oct. 23, 2012 Rise Set
Actual Time 8:06 AM EDT 6:52 PM EDT
Civil Twilight 7:38 AM EDT 7:20 PM EDT
Nautical Twilight 7:06 AM EDT 7:52 PM EDT
Astronomical Twilight 6:34 AM EDT 8:24 PM EDT
Moon 3:37 PM EDT (10/23) 1:55 AM EDT (10/23)
Length of Visible Light 11h 42m
Length of Day
10h 46m
Waxing Gibbous, 66% of the Moon is Illuminated
Oct 23
Waxing Gibbous
Oct 29
Full
Nov 6
Last Quarter
Nov 13
New
Nov 20
First Quarter

Hourly Weather History & Observations

Time (EDT) Temp. Dew Point Humidity Pressure Visibility Wind Dir Wind Speed Gust Speed Precip Events Conditions
12:15 AM 60.8 °F 55.4 °F 82% 29.96 in 10.0 mi South 10.4 mph - N/A   Scattered Clouds
12:35 AM 60.8 °F 53.6 °F 77% 29.95 in 10.0 mi South 11.5 mph - N/A   Clear
12:55 AM 60.8 °F 55.4 °F 82% 29.96 in 10.0 mi South 8.1 mph - N/A   Mostly Cloudy
1:15 AM 60.8 °F 55.4 °F 82% 29.96 in 10.0 mi South 5.8 mph - N/A   Overcast
1:35 AM 60.8 °F 53.6 °F 77% 29.95 in 10.0 mi South 6.9 mph - N/A   Overcast
1:55 AM 60.8 °F 53.6 °F 77% 29.95 in 10.0 mi South 6.9 mph - N/A   Overcast
2:35 AM 60.8 °F 53.6 °F 77% 29.95 in 10.0 mi South 8.1 mph - N/A   Overcast
2:55 AM 60.8 °F 53.6 °F 77% 29.94 in 10.0 mi SSW 10.4 mph - N/A   Overcast
3:15 AM 62.6 °F 53.6 °F 72% 29.94 in 10.0 mi SSW 9.2 mph - N/A   Overcast
3:55 AM 62.6 °F 51.8 °F 68% 29.95 in 10.0 mi SW 4.6 mph - N/A   Overcast
4:15 AM 60.8 °F 53.6 °F 77% 29.95 in 10.0 mi West 3.5 mph - N/A   Overcast
4:35 AM 62.6 °F 53.6 °F 72% 29.95 in 10.0 mi WSW 3.5 mph - N/A   Overcast
4:55 AM 60.8 °F 53.6 °F 77% 29.95 in 10.0 mi SW 5.8 mph - 0.01 in Rain Light Rain
5:15 AM 60.8 °F 53.6 °F 77% 29.95 in 10.0 mi SW 4.6 mph - N/A   Scattered Clouds
6:15 AM 55.4 °F 53.6 °F 94% 29.94 in 10.0 mi SSE 4.6 mph - N/A   Scattered Clouds
6:35 AM 53.6 °F 51.8 °F 94% 29.94 in 10.0 mi SSE 4.6 mph - N/A   Scattered Clouds
6:55 AM 55.4 °F 51.8 °F 88% 29.94 in 10.0 mi SSE 6.9 mph - N/A   Scattered Clouds
7:35 AM 59.0 °F 53.6 °F 82% 29.96 in 10.0 mi South 8.1 mph - N/A   Overcast
7:55 AM 59.0 °F 53.6 °F 82% 29.96 in 10.0 mi South 9.2 mph - N/A   Overcast
8:35 AM 59.0 °F 55.4 °F 88% 29.99 in 7.0 mi WSW 19.6 mph 24.2 mph 0.01 in Rain Rain
8:55 AM 59.0 °F 59.0 °F 100% 30.01 in 1.2 mi WSW 26.5 mph 35.7 mph 0.45 in Rain Heavy Rain
9:15 AM 60.8 °F 60.8 °F 100% 30.03 in 7.0 mi West 19.6 mph 24.2 mph 0.06 in Rain Heavy Rain
9:35 AM 62.6 °F 59.0 °F 88% 30.03 in 7.0 mi West 9.2 mph 27.6 mph 0.16 in Rain Rain
9:55 AM 62.6 °F 59.0 °F 88% 30.03 in 5.0 mi WNW 8.1 mph - 0.24 in Rain Heavy Rain
10:15 AM 62.6 °F 59.0 °F 88% 30.00 in 5.0 mi North 13.8 mph 18.4 mph 0.08 in Rain Heavy Rain
11:15 AM 60.8 °F 59.0 °F 94% 30.03 in 10.0 mi South 12.7 mph - N/A   Light Drizzle
11:55 AM 59.0 °F 57.2 °F 94% 30.03 in 10.0 mi South 13.8 mph 17.3 mph N/A   Mostly Cloudy
12:15 PM 59.0 °F 57.2 °F 94% 30.02 in 10.0 mi South 11.5 mph - N/A   Mostly Cloudy
12:35 PM 59.0 °F 57.2 °F 94% 30.04 in 10.0 mi South 16.1 mph - N/A Rain Light Rain
12:55 PM 59.0 °F 57.2 °F 94% 30.03 in 5.0 mi South 10.4 mph 13.8 mph 0.04 in Rain Light Rain
1:15 PM 59.0 °F 59.0 °F 100% 30.02 in 10.0 mi South 9.2 mph - N/A Rain Light Rain
1:35 PM 60.8 °F 59.0 °F 94% 30.01 in 10.0 mi South 8.1 mph - N/A   Mostly Cloudy
1:55 PM 60.8 °F 59.0 °F 94% 30.01 in 10.0 mi SSW 13.8 mph - N/A   Mostly Cloudy
2:15 PM 60.8 °F 59.0 °F 94% 30.00 in 10.0 mi South 13.8 mph - N/A   Mostly Cloudy
2:35 PM 60.8 °F 59.0 °F 94% 29.99 in 10.0 mi SSW 13.8 mph 17.3 mph N/A   Overcast
2:55 PM 60.8 °F 59.0 °F 94% 29.98 in 7.0 mi SSW 11.5 mph - 0.01 in Rain Rain
3:15 PM 60.8 °F 59.0 °F 94% 29.96 in 10.0 mi SSW 8.1 mph - 0.02 in   Overcast
3:35 PM 60.8 °F 59.0 °F 94% 29.96 in 10.0 mi SSW 10.4 mph - 0.02 in   Overcast
3:55 PM 60.8 °F 57.2 °F 88% 29.96 in 10.0 mi SSW 11.5 mph 17.3 mph 0.02 in   Overcast
4:15 PM 60.8 °F 59.0 °F 94% 29.96 in 10.0 mi SSW 10.4 mph - N/A   Overcast
4:35 PM 62.6 °F 59.0 °F 88% 29.95 in 10.0 mi South 11.5 mph 16.1 mph N/A   Overcast
4:55 PM 60.8 °F 59.0 °F 94% 29.96 in 10.0 mi SSW 10.4 mph - N/A   Overcast
5:15 PM 62.6 °F 60.8 °F 94% 29.96 in 10.0 mi SSW 8.1 mph - N/A   Overcast
5:35 PM 64.4 °F 60.8 °F 88% 29.96 in 10.0 mi SSW 11.5 mph 16.1 mph N/A   Overcast
5:55 PM 62.6 °F 60.8 °F 94% 29.97 in 10.0 mi SSW 11.5 mph - N/A   Mostly Cloudy
6:15 PM 62.6 °F 60.8 °F 94% 29.97 in 10.0 mi SW 10.4 mph - N/A   Mostly Cloudy
6:35 PM 62.6 °F 60.8 °F 94% 29.97 in 10.0 mi SW 6.9 mph - N/A   Mostly Cloudy
6:55 PM 60.8 °F 59.0 °F 94% 29.97 in 10.0 mi SSW 3.5 mph - N/A   Scattered Clouds
7:15 PM 60.8 °F 59.0 °F 94% 29.97 in 10.0 mi Calm Calm - N/A   Scattered Clouds
7:35 PM 60.8 °F 59.0 °F 94% 29.98 in 10.0 mi SSE 3.5 mph - N/A   Mostly Cloudy
7:55 PM 60.8 °F 59.0 °F 94% 29.98 in 10.0 mi SSE 5.8 mph - N/A   Overcast
8:15 PM 60.8 °F 59.0 °F 94% 29.97 in 10.0 mi South 5.8 mph - N/A   Overcast
8:35 PM 60.8 °F 59.0 °F 94% 29.97 in 10.0 mi SE 5.8 mph - N/A   Overcast
8:55 PM 60.8 °F 59.0 °F 94% 29.97 in 10.0 mi SE 4.6 mph - N/A   Overcast
9:15 PM 60.8 °F 59.0 °F 94% 29.98 in 10.0 mi SE 3.5 mph - N/A   Overcast
9:35 PM 60.8 °F 59.0 °F 94% 29.98 in 10.0 mi ESE 3.5 mph - N/A   Overcast
9:55 PM 60.8 °F 59.0 °F 94% 29.98 in 10.0 mi SE 5.8 mph - N/A   Overcast
10:15 PM 60.8 °F 59.0 °F 94% 29.98 in 10.0 mi SE 4.6 mph - N/A   Overcast
10:35 PM 60.8 °F 59.0 °F 94% 29.98 in 10.0 mi SE 4.6 mph - N/A   Overcast
10:55 PM 60.8 °F 59.0 °F 94% 29.98 in 10.0 mi SE 6.9 mph - N/A   Overcast
11:15 PM 60.8 °F 59.0 °F 94% 29.98 in 10.0 mi SE 5.8 mph - N/A   Overcast
11:35 PM 60.8 °F 59.0 °F 94% 29.98 in 10.0 mi SE 6.9 mph - N/A   Overcast
11:55 PM 60.8 °F 59.0 °F 94% 29.98 in 10.0 mi SE 5.8 mph - N/A   Overcast